This is the latest recevied weather packets stored in our database for station/object N5JXS. If no packets are shown the sender has not sent any weather packets the latest 10 day(s).
| Time | Temp. | Humidity | Pressure | Rain* | Wind** | Luminosity | Snow |
|---|---|---|---|---|---|---|---|
| 1777697125 | 2.78° C | 43% | 1025.1 hPa | 0 mm | - | 0 W/m² | - |
| 1777696822 | 2.78° C | 45% | 1025.3 hPa | 0 mm | - | 0 W/m² | - |
| 1777696519 | 2.78° C | 44% | 1025 hPa | 0 mm | - | 0 W/m² | - |
| 1777696215 | 2.78° C | 45% | 1025.5 hPa | 0 mm | - | 0 W/m² | - |
| 1777695910 | 2.78° C | 44% | 1025.3 hPa | 0 mm | - | 0 W/m² | - |
| 1777695609 | 2.78° C | 45% | 1025.3 hPa | 0 mm | - | 0 W/m² | - |
| 1777695306 | 2.78° C | 45% | 1025.1 hPa | 0 mm | - | 0 W/m² | - |
| 1777695003 | 2.78° C | 45% | 1025.1 hPa | 0 mm | - | 0 W/m² | - |
| 1777694699 | 2.78° C | 44% | 1025.1 hPa | 0 mm | - | 0 W/m² | - |
| 1777694396 | 2.78° C | 45% | 1025.1 hPa | 0 mm | - | 0 W/m² | - |
| 1777694092 | 2.78° C | 46% | 1025 hPa | 0 mm | - | 0 W/m² | - |
| 1777693790 | 2.78° C | 46% | 1025.2 hPa | 0 mm | - | 0 W/m² | - |
| 1777693488 | 2.78° C | 46% | 1025 hPa | 0 mm | - | 0 W/m² | - |
| 1777693186 | 2.78° C | 45% | 1025 hPa | 0 mm | - | 0 W/m² | - |
| 1777692883 | 2.78° C | 44% | 1025.1 hPa | 0 mm | - | 0 W/m² | - |
| 1777692580 | 2.78° C | 45% | 1024.7 hPa | 0 mm | - | 0 W/m² | - |
| 1777692276 | 2.78° C | 44% | 1024.7 hPa | 0 mm | - | 0 W/m² | - |
| 1777691974 | 2.78° C | 44% | 1024.6 hPa | 0 mm | - | 0 W/m² | - |
| 1777691672 | 3.33° C | 45% | 1024.7 hPa | 0 mm | - | 0 W/m² | - |
| 1777691370 | 3.33° C | 47% | 1024.7 hPa | 0 mm | - | 0 W/m² | - |
| 1777691068 | 3.33° C | 45% | 1024.6 hPa | 0 mm | - | 0 W/m² | - |
| 1777690766 | 3.33° C | 47% | 1024.6 hPa | 0 mm | - | 0 W/m² | - |
| 1777690462 | 3.33° C | 43% | 1024.6 hPa | 0 mm | - | 0 W/m² | - |
| 1777690160 | 3.33° C | 45% | 1024.5 hPa | 0 mm | - | 0 W/m² | - |
| 1777689858 | 3.33° C | 46% | 1024.2 hPa | 0 mm | - | 0 W/m² | - |
* Rain latest hour (hover to see other rain measurements)
** Current wind speed in m/s (hover to see current wind gust speed)